Previsão horária em Barkowo

Hoje, 5 Agosto, Quinta-feira

Tempo Temperatura Precipitação Vento Pressão Humidade
00:00 +14°C° 0 mm 2 m/s 748 mmHg 84%
01:00 +13°C° 0 mm 2 m/s 747 mmHg 89%
02:00 +13°C° 0 mm 2 m/s 747 mmHg 90%
03:00 +12°C° 0 mm 2 m/s 747 mmHg 91%
04:00 +12°C° 0 mm 2 m/s 747 mmHg 92%
05:00 +14°C° 0 mm 2 m/s 747 mmHg 84%
06:00 +16°C° 0 mm 3 m/s 747 mmHg 75%
07:00 +17°C° 0 mm 3 m/s 747 mmHg 67%
08:00 +19°C° 0 mm 3 m/s 747 mmHg 60%
09:00 +21°C° 0 mm 3 m/s 746 mmHg 53%
10:00 +22°C° 0 mm 3 m/s 746 mmHg 46%
11:00 +24°C° 0 mm 3 m/s 746 mmHg 43%
12:00 +24°C° 0 mm 3 m/s 746 mmHg 41%
13:00 +25°C° 0 mm 3 m/s 745 mmHg 38%
14:00 +24°C° 0 mm 3 m/s 745 mmHg 40%
15:00 +24°C° 0 mm 2 m/s 745 mmHg 43%
16:00 +23°C° 0 mm 2 m/s 744 mmHg 45%
17:00 +21°C° 0 mm 3 m/s 744 mmHg 49%
18:00 +21°C° 0 mm 3 m/s 744 mmHg 52%
19:00 +20°C° 0 mm 3 m/s 744 mmHg 56%
20:00 +19°C° 0 mm 3 m/s 744 mmHg 63%
21:00 +18°C° 0 mm 3 m/s 744 mmHg 71%
22:00 +17°C° 0 mm 2 m/s 744 mmHg 78%
23:00 +16°C° 0 mm 2 m/s 744 mmHg 80%

Amanhã, 6 Agosto, Sexta-feira

Tempo Temperatura Precipitação Vento Pressão Humidade
00:00 +16°C° 0 mm 2 m/s 743 mmHg 83%
01:00 +15°C° 0 mm 2 m/s 743 mmHg 86%
02:00 +15°C° 0.1 mm 2 m/s 743 mmHg 86%
03:00 +15°C° 0.1 mm 2 m/s 743 mmHg 86%
04:00 +15°C° 0.1 mm 2 m/s 743 mmHg 87%
05:00 +16°C° 0 mm 3 m/s 743 mmHg 81%
06:00 +17°C° 0 mm 3 m/s 743 mmHg 75%
07:00 +18°C° 0 mm 3 m/s 743 mmHg 69%
08:00 +19°C° 0 mm 4 m/s 743 mmHg 59%
09:00 +20°C° 0 mm 4 m/s 743 mmHg 48%
10:00 +22°C° 0 mm 4 m/s 743 mmHg 38%
11:00 +22°C° 0 mm 4 m/s 743 mmHg 37%
12:00 +23°C° 0 mm 4 m/s 743 mmHg 35%
13:00 +23°C° 0 mm 4 m/s 743 mmHg 33%
14:00 +23°C° 0 mm 4 m/s 743 mmHg 34%
15:00 +23°C° 0 mm 4 m/s 743 mmHg 35%
16:00 +23°C° 0 mm 4 m/s 743 mmHg 36%
17:00 +21°C° 0 mm 4 m/s 743 mmHg 42%
18:00 +20°C° 0 mm 3 m/s 743 mmHg 48%
19:00 +18°C° 0 mm 3 m/s 743 mmHg 54%
20:00 +17°C° 0 mm 3 m/s 743 mmHg 60%
21:00 +15°C° 0 mm 2 m/s 743 mmHg 66%
22:00 +13°C° 0 mm 2 m/s 743 mmHg 72%
23:00 +13°C° 0 mm 2 m/s 743 mmHg 74%

Depois de amanhã, 7 Agosto, Sábado

Tempo Temperatura Precipitação Vento Pressão Humidade
00:00 +13°C° 0 mm 1 m/s 743 mmHg 76%
01:00 +12°C° 0 mm 1 m/s 743 mmHg 78%
02:00 +12°C° 0 mm 1 m/s 743 mmHg 79%
03:00 +12°C° 0 mm 1 m/s 743 mmHg 80%
04:00 +12°C° 0 mm 1 m/s 743 mmHg 81%
05:00 +14°C° 0 mm 1 m/s 743 mmHg 73%
06:00 +16°C° 0 mm 1 m/s 743 mmHg 64%
07:00 +19°C° 0 mm 1 m/s 743 mmHg 56%
08:00 +20°C° 0 mm 2 m/s 743 mmHg 53%
09:00 +23°C° 0 mm 2 m/s 743 mmHg 50%
10:00 +25°C° 0 mm 2 m/s 743 mmHg 47%
11:00 +25°C° 0 mm 3 m/s 743 mmHg 47%
12:00 +25°C° 0 mm 3 m/s 743 mmHg 47%
13:00 +26°C° 0 mm 3 m/s 742 mmHg 47%
14:00 +26°C° 0 mm 3 m/s 743 mmHg 47%
15:00 +25°C° 0 mm 3 m/s 743 mmHg 48%
16:00 +25°C° 0 mm 2 m/s 743 mmHg 49%
17:00 +24°C° 0 mm 2 m/s 743 mmHg 51%
18:00 +24°C° 0 mm 2 m/s 743 mmHg 53%
19:00 +23°C° 0 mm 1 m/s 743 mmHg 56%
20:00 +22°C° 0 mm 1 m/s 743 mmHg 60%
21:00 +19°C° 0 mm 2 m/s 743 mmHg 63%
22:00 +18°C° 0 mm 2 m/s 743 mmHg 67%
23:00 +18°C° 0 mm 2 m/s 743 mmHg 68%

8 Agosto, Domingo

Tempo Temperatura Precipitação Vento Pressão Humidade
00:00 +18°C° 0 mm 3 m/s 743 mmHg 70%
01:00 +18°C° 0 mm 3 m/s 742 mmHg 71%
02:00 +18°C° 0 mm 2 m/s 742 mmHg 71%
03:00 +18°C° 0 mm 2 m/s 742 mmHg 71%
04:00 +18°C° 0 mm 2 m/s 742 mmHg 71%
05:00 +18°C° 0.1 mm 2 m/s 742 mmHg 72%
06:00 +19°C° 0.1 mm 3 m/s 742 mmHg 74%
07:00 +19°C° 0.1 mm 3 m/s 742 mmHg 75%
08:00 +20°C° 0.1 mm 4 m/s 743 mmHg 72%
09:00 +20°C° 0.1 mm 4 m/s 743 mmHg 69%
10:00 +21°C° 0.1 mm 5 m/s 744 mmHg 66%
11:00 +23°C° 0 mm 5 m/s 744 mmHg 58%
12:00 +25°C° 0 mm 5 m/s 744 mmHg 50%
13:00 +26°C° 0 mm 5 m/s 745 mmHg 42%
14:00 +26°C° 0 mm 5 m/s 745 mmHg 43%
15:00 +24°C° 0 mm 6 m/s 745 mmHg 44%
16:00 +24°C° 0 mm 6 m/s 746 mmHg 45%
17:00 +23°C° 0 mm 4 m/s 746 mmHg 49%
18:00 +22°C° 0 mm 3 m/s 746 mmHg 53%
19:00 +21°C° 0 mm 2 m/s 747 mmHg 57%
20:00 +20°C° 0 mm 2 m/s 747 mmHg 59%
21:00 +19°C° 0 mm 2 m/s 747 mmHg 61%
22:00 +19°C° 0 mm 3 m/s 747 mmHg 63%
23:00 +18°C° 0 mm 3 m/s 748 mmHg 70%

9 Agosto, Segunda-feira

Tempo Temperatura Precipitação Vento Pressão Humidade
00:00 +17°C° 0 mm 3 m/s 748 mmHg 76%
01:00 +16°C° 0 mm 3 m/s 748 mmHg 82%
02:00 +14°C° 0 mm 3 m/s 748 mmHg 86%
03:00 +13°C° 0 mm 3 m/s 748 mmHg 89%
04:00 +13°C° 0 mm 3 m/s 749 mmHg 93%
05:00 +14°C° 0 mm 3 m/s 749 mmHg 86%
06:00 +15°C° 0 mm 4 m/s 749 mmHg 79%
07:00 +16°C° 0 mm 5 m/s 749 mmHg 71%
08:00 +19°C° 0 mm 5 m/s 749 mmHg 63%
09:00 +21°C° 0 mm 5 m/s 750 mmHg 55%
10:00 +22°C° 0 mm 6 m/s 750 mmHg 47%
11:00 +23°C° 0 mm 5 m/s 750 mmHg 42%
12:00 +25°C° 0 mm 5 m/s 750 mmHg 37%
13:00 +26°C° 0 mm 5 m/s 750 mmHg 33%
14:00 +25°C° 0 mm 5 m/s 750 mmHg 34%
15:00 +25°C° 0 mm 5 m/s 750 mmHg 36%
16:00 +23°C° 0 mm 5 m/s 750 mmHg 37%
17:00 +22°C° 0 mm 5 m/s 750 mmHg 43%
18:00 +21°C° 0 mm 5 m/s 751 mmHg 48%
19:00 +20°C° 0 mm 4 m/s 751 mmHg 54%
20:00 +19°C° 0 mm 3 m/s 751 mmHg 59%
21:00 +18°C° 0 mm 2 m/s 751 mmHg 65%
22:00 +16°C° 0 mm 2 m/s 751 mmHg 71%
23:00 +16°C° 0 mm 2 m/s 751 mmHg 73%

10 Agosto, Terça-feira

Tempo Temperatura Precipitação Vento Pressão Humidade
00:00 +16°C° 0 mm 2 m/s 751 mmHg 75%
01:00 +16°C° 0 mm 3 m/s 750 mmHg 78%
02:00 +14°C° 0 mm 3 m/s 750 mmHg 82%
03:00 +13°C° 0 mm 3 m/s 750 mmHg 86%
04:00 +13°C° 0 mm 3 m/s 750 mmHg 90%
05:00 +14°C° 0 mm 3 m/s 750 mmHg 85%
06:00 +15°C° 0 mm 4 m/s 750 mmHg 80%
07:00 +17°C° 0 mm 4 m/s 750 mmHg 75%
08:00 +19°C° 0 mm 4 m/s 750 mmHg 66%
09:00 +20°C° 0 mm 5 m/s 750 mmHg 57%
10:00 +22°C° 0 mm 5 m/s 750 mmHg 48%
11:00 +22°C° 0.3 mm 5 m/s 750 mmHg 51%
12:00 +21°C° 0.3 mm 5 m/s 749 mmHg 55%
13:00 +21°C° 0.3 mm 6 m/s 749 mmHg 58%
14:00 +21°C° 0.4 mm 5 m/s 749 mmHg 62%
15:00 +20°C° 0.4 mm 5 m/s 749 mmHg 65%
16:00 +19°C° 0.4 mm 4 m/s 749 mmHg 68%
17:00 +19°C° 0.4 mm 4 m/s 749 mmHg 72%
18:00 +18°C° 0.4 mm 3 m/s 749 mmHg 75%
19:00 +17°C° 0.4 mm 3 m/s 749 mmHg 79%
20:00 +17°C° 0 mm 2 m/s 749 mmHg 81%
21:00 +16°C° 0 mm 2 m/s 749 mmHg 84%
22:00 +16°C° 0 mm 2 m/s 749 mmHg 86%
23:00 +16°C° 0 mm 2 m/s 749 mmHg 86%
Mostrar mais